Location: Unspecified
(34.4950°S, 58.5160°W)
Time: 04:37:20
(UTC+00:00)

Meteor 1-11 Rocket - Pass Details

Date: 04 December 2021
Orbit: 832 x 915 km, 81.2° (Epoch: 23 January)

Event Time Altitude Azimuth Distance (km) Brightness Sun altitude
Rises 23:26:02 0° 2° (N) 3,498 6.6 -6.4°
Reaches altitude 10° 23:28:29 10° 5° (N) 2,576 5.9 -6.8°
Maximum altitude 23:34:18 64° 85° (E) 1,012 3.9 -7.8°
Drops below altitude 10° 23:40:15 10° 165° (SSE) 2,634 6.5 -8.8°
Sets 23:42:46 0° 167° (SSE) 3,584 7.3 -9.2°
